Tampa Macdill AFB, FL

7:19 PM EST on November 18, 2019 (GMT -0500)
MacDill Air Force Base

Weather History for KMCF - September, 2019

Change the Weather History Date:

Sunday, September 22, 2019

  Actual Average Record
Temperature  
Mean Temperature 80 °F -  
Max Temperature 89 °F 86 °F 95 °F (2011)
Min Temperature 71 °F 72 °F 68 °F (1999)
Cooling Degree Days 15    
Growing Degree Days 30 (Base 50)    
Moisture  
Dew Point 66 °F    
Average Humidity 68    
Maximum Humidity 87    
Minimum Humidity 45    
Precipitation  
Precipitation 0.00 in - - ()
Sea Level Pressure  
Sea Level Pressure 30.08 in    
Wind  
Wind Speed 11 mph (East)    
Max Wind Speed 18 mph    
Max Gust Speed 24 mph    
Visibility 10 miles    
Events      
Averages and records for this station are not official NWS values.
T = Trace of Precipitation, MM = Missing Value Source: NWS Daily Summary

Daily Weather History Graph

Daily Weather History Graph

Search for Another Location

Airport or City:

Astronomy

Sep. 22, 2019 Rise Set
Actual Time 7:18 AM EDT 7:26 PM EDT
Civil Twilight 6:55 AM EDT 7:50 PM EDT
Nautical Twilight 6:27 AM EDT 8:17 PM EDT
Astronomical Twilight 6:00 AM EDT 8:44 PM EDT
Moon 12:37 AM EDT (9/22) 2:49 PM EDT (9/22)
Length of Visible Light 12h 55m
Length of Day
12h 08m
Last Quarter, 44% of the Moon is Illuminated
Sep 22
Last Quarter
Sep 28
New
Oct 5
First Quarter
Oct 13
Full
Oct 21
Last Quarter

Hourly Weather History & Observations

Time (EDT) Temp. Heat Index Dew Point Humidity Pressure Visibility Wind Dir Wind Speed Gust Speed Precip Events Conditions
12:56 AM 74.5 °F - 67.8 °F 80% 30.12 in 10.0 mi ENE 10.4 mph - N/A   Clear
1:56 AM 73.6 °F - 66.9 °F 80% 30.11 in 10.0 mi East 10.4 mph - N/A   Partly Cloudy
2:56 AM 72.1 °F - 66.9 °F 84% 30.10 in 10.0 mi ENE 8.1 mph - N/A   Clear
3:56 AM 71.6 °F - 66.4 °F 84% 30.08 in 10.0 mi ENE 6.9 mph - N/A   Partly Cloudy
4:56 AM 71.6 °F - 66.7 °F 85% 30.08 in 10.0 mi ENE 6.9 mph - N/A   Clear
5:56 AM 71.6 °F - 66.7 °F 85% 30.08 in 10.0 mi ENE 6.9 mph - N/A   Clear
6:56 AM 71.4 °F - 67.3 °F 87% 30.08 in 10.0 mi East 9.2 mph - N/A   Clear
7:56 AM 72.3 °F - 67.5 °F 85% 30.10 in 10.0 mi ENE 8.1 mph - N/A   Scattered Clouds
8:56 AM 75.7 °F - 67.6 °F 76% 30.11 in 10.0 mi East 12.7 mph - N/A   Clear
9:56 AM 79.5 °F - 67.5 °F 66% 30.12 in 10.0 mi East 13.8 mph 21.9 mph N/A   Clear
10:56 AM 83.1 °F 85.7 °F 66.7 °F 58% 30.11 in 10.0 mi East 16.1 mph - N/A   Clear
11:56 AM 85.1 °F 87.7 °F 66.6 °F 54% 30.10 in 10.0 mi ESE 18.4 mph 24.2 mph N/A   Clear
12:56 PM 86.5 °F 88.4 °F 65.1 °F 49% 30.08 in 10.0 mi East 16.1 mph 24.2 mph N/A   Clear
1:56 PM 88.2 °F 90.3 °F 65.8 °F 47% 30.07 in 10.0 mi ESE 13.8 mph 20.7 mph N/A   Clear
4:56 PM 89.1 °F 91.0 °F 64.9 °F 45% 30.02 in 10.0 mi ESE 13.8 mph 18.4 mph N/A   Partly Cloudy
5:56 PM 87.1 °F 89.5 °F 66.2 °F 50% 30.02 in 10.0 mi ESE 11.5 mph - N/A   Scattered Clouds
6:07 PM 86.0 °F 88.2 °F 66.2 °F 51% 30.02 in 10.0 mi East 13.8 mph - N/A   Light Drizzle
6:56 PM 84.0 °F 86.0 °F 65.5 °F 54% 30.03 in 10.0 mi ESE 11.5 mph - 0.00 in   Clear
7:56 PM 81.1 °F 82.8 °F 64.4 °F 57% 30.04 in 10.0 mi ESE 9.2 mph - N/A   Clear
9:56 PM 76.5 °F - 65.1 °F 68% 30.08 in 10.0 mi East 9.2 mph - N/A   Clear
10:56 PM 76.5 °F - 64.2 °F 66% 30.09 in 10.0 mi East 10.4 mph - N/A   Clear
11:56 PM 72.0 °F - 64.8 °F 78% 30.08 in 10.0 mi East 8.1 mph - N/A   Clear